Terminal Aerodrome Forecast
Issued by NWS Louisville, KY

Home | Current Version | Previous Version | Text Only | Print | Product List | Glossary On
Versions: 1 2 3 4 5 6 7 8 9 10 11 12 13 14 15 16 17 18
000
FTUS43 KLMK 250500
TAFBWG
TAF
KBWG 250529Z 2506/2606 25007KT P6SM BKN025
      TEMPO 2511/2514 BKN018
     FM251700 22007KT P6SM SCT025
     FM252300 18005KT P6SM SKC=

USA.gov is the U.S. government's official web portal to all federal, state and local government web resources and services.